Decorah, Iowa, United States (52101)
Lat: 43.30N, Lon: 91.79W
Wx Zone: IAZ010
Local Info
Past Weather Observations for Today

NOTE: This archive is for the closest National Weather Service station to Decorah. Information may differ from the station used for current weather conditions.

Click here for Long-term Archive

Time Weather Temperature Dewpoint Humidity Pressure Winds Precip Visibility
18:55
Clear
73°F / 23°C 59°F / 15°C 61% 30.15 in
(1021 mb)
Calm - 10SM
18:35
Clear
73°F / 23°C 59°F / 15°C 61% 30.15 in
(1021 mb)
Calm - 10SM
18:15
Clear
75°F / 24°C 57°F / 14°C 54% 30.15 in
(1021 mb)
N 3.5 mph
(N 6 kph)
- 10SM
17:55
Clear
75°F / 24°C 57°F / 14°C 54% 30.15 in
(1021 mb)
N 5.8 mph
(N 9 kph)
- 10SM
17:35
Partly Cloudy
75°F / 24°C 57°F / 14°C 54% 30.15 in
(1021 mb)
N 8.1 mph
(N 13 kph)
- 10SM
17:15
Partly Cloudy
75°F / 24°C 57°F / 14°C 54% 30.15 in
(1021 mb)
N 5.8 mph
(N 9 kph)
- 10SM
16:55
Clear
75°F / 24°C 57°F / 14°C 54% 30.15 in
(1021 mb)
N 6.9 mph
(N 11 kph)
- 10SM
16:35
Clear
75°F / 24°C 55°F / 13°C 50% 30.18 in
(1022 mb)
N 5.8 mph
(N 9 kph)
- 10SM
16:15
Partly Cloudy
77°F / 25°C 55°F / 13°C 47% 30.18 in
(1022 mb)
NNW 8.1 mph
(NNW 13 kph)
- 10SM
15:55
Mostly Cloudy
77°F / 25°C 55°F / 13°C 47% 30.18 in
(1022 mb)
Calm - 10SM
15:30
Clear
77°F / 25°C 55°F / 13°C 47% 30.18 in
(1022 mb)
Variable 4.6 mph
(Variable 7 kph)
- 10SM
15:15
Partly Cloudy
77°F / 25°C 57°F / 14°C 51% 30.18 in
(1022 mb)
N 8.1 mph
(N 13 kph)
- 10SM
14:55
Partly Cloudy
77°F / 25°C 57°F / 14°C 51% 30.18 in
(1022 mb)
Variable 6.9 mph
(Variable 11 kph)
- 10SM
14:35
Mostly Cloudy
77°F / 25°C 55°F / 13°C 47% 30.21 in
(1023 mb)
NNW 4.6 mph
(NNW 7 kph)
- 10SM
14:15
Mostly Cloudy
77°F / 25°C 55°F / 13°C 47% 30.21 in
(1023 mb)
Variable 5.8 mph
(Variable 9 kph)
- 10SM
13:55
Mostly Cloudy
75°F / 24°C 55°F / 13°C 50% 30.21 in
(1023 mb)
N 5.8 mph
(N 9 kph)
- 10SM
13:35
Mostly Cloudy
75°F / 24°C 57°F / 14°C 54% 30.21 in
(1023 mb)
Calm - 10SM
13:15
Partly Cloudy
75°F / 24°C 55°F / 13°C 50% 30.21 in
(1023 mb)
ENE 6.9 mph
(ENE 11 kph)
- 10SM
12:55
Partly Cloudy
75°F / 24°C 55°F / 13°C 50% 30.21 in
(1023 mb)
Variable 4.6 mph
(Variable 7 kph)
- 10SM
12:35
Partly Cloudy
75°F / 24°C 55°F / 13°C 50% 30.21 in
(1023 mb)
Variable 3.5 mph
(Variable 6 kph)
- 10SM
12:15
Partly Cloudy
75°F / 24°C 55°F / 13°C 50% 30.24 in
(1024 mb)
Variable 4.6 mph
(Variable 7 kph)
- 10SM
11:50
Partly Cloudy
75°F / 24°C 55°F / 13°C 50% 30.24 in
(1024 mb)
Variable 6.9 mph
(Variable 11 kph)
- 10SM
11:35
Mostly Cloudy
73°F / 23°C 57°F / 14°C 57% 30.24 in
(1024 mb)
N 4.6 mph
(N 7 kph)
- 10SM
11:15
Mostly Cloudy
73°F / 23°C 55°F / 13°C 53% 30.24 in
(1024 mb)
E 8.1 mph
(E 13 kph)
- 10SM
10:55
Partly Cloudy
73°F / 23°C 57°F / 14°C 57% 30.24 in
(1024 mb)
Calm - 10SM
10:35
Mostly Cloudy
73°F / 23°C 59°F / 15°C 61% 30.24 in
(1024 mb)
N 5.8 mph
(N 9 kph)
- 10SM
10:15
Mostly Cloudy
73°F / 23°C 57°F / 14°C 57% 30.24 in
(1024 mb)
Variable 4.6 mph
(Variable 7 kph)
-
09:55
Clear
72°F / 22°C 57°F / 14°C 61% 30.24 in
(1024 mb)
Calm - 10SM
09:35
Clear
72°F / 22°C 59°F / 15°C 65% 30.24 in
(1024 mb)
Variable 5.8 mph
(Variable 9 kph)
- 10SM
09:15
Clear
72°F / 22°C 57°F / 14°C 61% 30.24 in
(1024 mb)
Calm - 10SM
08:55
Clear
70°F / 21°C 59°F / 15°C 69% 30.24 in
(1024 mb)
Variable 4.6 mph
(Variable 7 kph)
- 10SM
08:35
Clear
70°F / 21°C 59°F / 15°C 69% 30.24 in
(1024 mb)
ENE 4.6 mph
(ENE 7 kph)
- 10SM
08:15
Clear
70°F / 21°C 59°F / 15°C 69% 30.24 in
(1024 mb)
Variable 4.6 mph
(Variable 7 kph)
- 10SM
07:55
Clear
68°F / 20°C 59°F / 15°C 73% 30.24 in
(1024 mb)
Variable 5.8 mph
(Variable 9 kph)
- 10SM
07:35
Clear
68°F / 20°C 59°F / 15°C 73% 30.21 in
(1023 mb)
NE 5.8 mph
(NE 9 kph)
- 10SM
07:15
Clear
66°F / 19°C 61°F / 16°C 83% 30.21 in
(1023 mb)
Calm - 10SM
06:55
Clear
66°F / 19°C 61°F / 16°C 83% 30.21 in
(1023 mb)
N 4.6 mph
(N 7 kph)
- 10SM
06:35
Clear
64°F / 18°C 61°F / 16°C 88% 30.21 in
(1023 mb)
NNE 3.5 mph
(NNE 6 kph)
- 10SM
06:15
Clear
63°F / 17°C 59°F / 15°C 88% 30.21 in
(1023 mb)
Calm - 10SM
05:55
Clear
63°F / 17°C 59°F / 15°C 88% 30.21 in
(1023 mb)
Calm - 10SM
05:35
Clear
63°F / 17°C 59°F / 15°C 88% 30.18 in
(1022 mb)
NE 4.6 mph
(NE 7 kph)
- 10SM
05:15
Clear
63°F / 17°C 59°F / 15°C 88% 30.18 in
(1022 mb)
NE 3.5 mph
(NE 6 kph)
- 10SM
04:55
Mostly Cloudy
63°F / 17°C 61°F / 16°C 94% 30.18 in
(1022 mb)
Calm - 10SM
04:35
Overcast
63°F / 17°C 61°F / 16°C 94% 30.18 in
(1022 mb)
NNE 3.5 mph
(NNE 6 kph)
- 10SM
04:15
Overcast
64°F / 18°C 61°F / 16°C 88% 30.18 in
(1022 mb)
Calm - 10SM
03:55
Overcast
64°F / 18°C 61°F / 16°C 88% 30.18 in
(1022 mb)
Calm - 10SM
03:35
Overcast
63°F / 17°C 61°F / 16°C 94% 30.18 in
(1022 mb)
Calm - 10SM
03:15
Mostly Cloudy
64°F / 18°C 61°F / 16°C 88% 30.18 in
(1022 mb)
Calm - 10SM
02:55
Partly Cloudy
64°F / 18°C 63°F / 17°C 94% 30.18 in
(1022 mb)
Calm - 10SM
02:30
Partly Cloudy
66°F / 19°C 63°F / 17°C 88% 30.15 in
(1021 mb)
NE 3.5 mph
(NE 6 kph)
- 10SM
02:15
Clear
66°F / 19°C 63°F / 17°C 88% 30.15 in
(1021 mb)
NE 3.5 mph
(NE 6 kph)
- 10SM
01:55
Clear
66°F / 19°C 63°F / 17°C 88% 30.15 in
(1021 mb)
Variable 4.6 mph
(Variable 7 kph)
- 10SM
01:35
Clear
66°F / 19°C 63°F / 17°C 88% 30.15 in
(1021 mb)
NE 4.6 mph
(NE 7 kph)
- 10SM
01:15
Clear
66°F / 19°C 63°F / 17°C 88% 30.15 in
(1021 mb)
NNE 5.8 mph
(NNE 9 kph)
- 10SM
00:55
Clear
68°F / 20°C 63°F / 17°C 83% 30.15 in
(1021 mb)
NNE 5.8 mph
(NNE 9 kph)
- 10SM
00:35
Clear
68°F / 20°C 63°F / 17°C 83% 30.15 in
(1021 mb)
N 5.8 mph
(N 9 kph)
- 10SM
00:15
Clear
68°F / 20°C 63°F / 17°C 83% 30.12 in
(1020 mb)
N 8.1 mph
(N 13 kph)
- 10SM
Time Weather Temperature Dewpoint Humidity Pressure Winds Precip Visibility


Weather for websites

WeatherForYou.com, LLC is not responsible for any damages or problems caused by this service. Current weather conditions are obtained from the closest station including government and personal stations which may have varying degrees of accuracy. Weather forecasts are derived from the NOAA NDFD. Like all things, this site belongs to Jesus Christ... He just trusts me to maintain it. If you have any questions or comments email webmaster@weatherforyou.com

Copyright © 2014, WeatherForYou.com LLC. All rights reserved.